Flag for U.S.A. Weather past 2 weeks in Chattanooga, Tennessee, U.S.A.

Now
59 °F

Fog.


Feels Like: 59 °F
Forecast: 59 / 78 °F
Wind: No wind

Location: Lovell Field

Current Time: Apr 18, 2015 at 8:06:03 AM

Latest Report: Apr 18, 2015 at 6:53 AM


Visibility: 0 mi

Pressure: 30.01 "Hg

Humidity: 100%

Dew point: 59 °F

Location of ChattanoogaLocation

Historic Weather in Chattanooga — Graph

°F

Chattanooga temperature yesterday

Maximum temperature yesterday: 63 °F (at 5:53 PM)
Minimum temperature yesterday: 57 °F (at 12:53 AM)
Average temperature yesterday: 60 °F

Past Weeks' High & Low Weather Summary

 TemperatureHumidityPressure
High85 °F (Apr 9, 1:53 PM)100% (Apr 18, 6:53 AM)30.32 "Hg (Apr 18, 6:53 AM)
Low38 °F (Apr 5, 6:53 AM)21% (Apr 4, 4:53 PM)29.83 "Hg (Apr 3, 7:53 PM)
Average64 °F72%30.10 "Hg
* Reported Apr 3 6:53 AM — Apr 18 6:53 AM, Chattanooga, Weather by CustomWeather, © 2015

Note: Actual official high and low records may vary slightly from our data, if they occured in-between our weather recording intervals... More about our weather records

Advertising

Chattanooga weather history for previous 24 hours

 ConditionsComfort  
Time TempWeatherWind HumidityBarometerVisibility
6:53 AM
Sat, Apr 18
59 °FFog.No wind100%30.01 "Hg0 mi
5:53 AM60 °FFog.3 mph96%29.99 "Hg0 mi
4:53 AM60 °FFog.No wind96%29.98 "Hg5 mi
3:59 AM61 °FFog.No wind97%30.01 "Hg1 mi
2:53 AM61 °FFog.3 mph93%30.00 "Hg5 mi
1:53 AM61 °FFog.No wind97%30.01 "Hg6 mi
12:53 AM61 °FFog.5 mph93%30.04 "Hg5 mi
12:00 AM61 °FOvercast.No wind97%30.05 "Hg7 mi
11:00 PM
Fri, Apr 17
61 °FMostly cloudy.No wind97%30.05 "Hg7 mi
9:53 PM62 °FMostly cloudy.5 mph93%30.03 "Hg8 mi
8:53 PM62 °FMostly cloudy.No wind96%30.02 "Hg9 mi
7:53 PM63 °FMostly cloudy.No wind90%30.01 "Hg9 mi
6:53 PM63 °FLight rain. Mostly cloudy.5 mph90%30.01 "Hg8 mi
5:53 PM63 °FLight rain. Mostly cloudy.No wind90%30.02 "Hg8 mi
4:53 PM62 °FLight rain. Fog.No wind90%30.04 "Hg5 mi
3:53 PM62 °FRain. Fog.3 mph90%30.06 "Hg4 mi
2:53 PM62 °FLight rain. Fog.No wind86%30.09 "Hg4 mi
1:53 PM62 °FFog.3 mph86%30.10 "Hg4 mi
12:53 PM62 °FFog.No wind86%30.11 "Hg4 mi
11:53 AM61 °FFog.No wind87%30.14 "Hg4 mi
10:53 AM61 °FFog.No wind87%30.14 "Hg4 mi
9:53 AM60 °FFog.No wind86%30.15 "Hg2 mi
8:53 AM59 °FFog.No wind90%30.16 "Hg2 mi
Weather by CustomWeather, © 2015

See weather overviewHow to use our weather pages